,,Stat6,,Stat2,,Stat8,,Stat9,,Stat10,,Wind1,,Wind1,
time,status,PA1M_AVG,status,PR1M_SUM,status,RH1M_AVG,status,SR1M_AVG,status,TA1M_AVG,status,W1dAve1m,status,W1sAve1m,
2008-08-20, 00:00:00,VALID,917.864,VALID,0,VALID,94.1458,VALID,0.0509425,VALID,20.6445,VALID,151,VALID,0.50558,
2008-08-20, 00:01:00,VALID,917.87,VALID,0,VALID,94.0657,VALID,0.0509425,VALID,20.6772,VALID,152,VALID,0.206445,
2008-08-20, 00:02:00,VALID,917.857,VALID,0,VALID,93.9805,VALID,0.0169808,VALID,20.6872,VALID,173,VALID,0.379278,
2008-08-20, 00:03:00,VALID,917.856,VALID,0,VALID,93.8648,VALID,0.0169808,VALID,20.6907,VALID,201,VALID,0.222301,
2008-08-20, 00:04:00,VALID,917.859,VALID,0,VALID,93.8355,VALID,0.0169808,VALID,20.6745,VALID,199,VALID,0.0383681,
2008-08-20, 00:05:00,VALID,917.859,VALID,0,VALID,93.8775,VALID,0.0339617,VALID,20.6677,VALID,183,VALID,0.0553977,
2008-08-20, 00:06:00,VALID,917.867,VALID,0,VALID,93.8902,VALID,-0.0509425,VALID,20.6496,VALID,177,VALID,0.224564,
2008-08-20, 00:07:00,VALID,917.87,VALID,0,VALID,94.0555,VALID,-0.101885,VALID,20.6101,VALID,178,VALID,0.504573,
2008-08-20, 00:08:00,VALID,917.876,VALID,0,VALID,94.2844,VALID,-0.0679233,VALID,20.5947,VALID,175,VALID,0.274581,
2008-08-20, 00:09:00,VALID,917.871,VALID,0,VALID,94.348,VALID,-0.0679233,VALID,20.5684,VALID,179,VALID,0.0199855,
2008-08-20, 00:10:00,VALID,917.885,VALID,0,VALID,94.4611,VALID,-0.0509425,VALID,20.5298,VALID,181,VALID,0,
2008-08-20, 00:11:00,VALID,917.88,VALID,0,VALID,94.6023,VALID,-0.0849042,VALID,20.5068,VALID,181,VALID,0,
2008-08-20, 00:12:00,VALID,917.89,VALID,0,VALID,94.7142,VALID,-0.0509425,VALID,20.4778,VALID,190,VALID,0.10774,
2008-08-20, 00:13:00,VALID,917.893,VALID,0,VALID,94.9037,VALID,-0.101885,VALID,20.4489,VALID,217,VALID,0.0606831,
2008-08-20, 00:14:00,VALID,917.9,VALID,0,VALID,95.0283,VALID,-0.0849042,VALID,20.4194,VALID,212,VALID,0,
2008-08-20, 00:15:00,VALID,917.898,VALID,0,VALID,95.2165,VALID,-0.101885,VALID,20.4002,VALID,195,VALID,0,
2008-08-20, 00:16:00,VALID,917.91,VALID,0,VALID,95.2979,VALID,-0.0509425,VALID,20.3964,VALID,195,VALID,0,
2008-08-20, 00:17:00,VALID,917.932,VALID,0,VALID,95.2979,VALID,-0.118866,VALID,20.3872,VALID,191,VALID,0,
2008-08-20, 00:18:00,VALID,917.933,VALID,0,VALID,95.3742,VALID,-0.0849042,VALID,20.3413,VALID,186,VALID,0,
2008-08-20, 00:19:00,VALID,917.94,VALID,0,VALID,95.542,VALID,-0.0849042,VALID,20.3221,VALID,173,VALID,0,
2008-08-20, 00:20:00,VALID,917.955,VALID,0,VALID,95.6882,VALID,-0.101885,VALID,20.2864,VALID,173,VALID,0,
2008-08-20, 00:21:00,VALID,917.958,VALID,0,VALID,95.8269,VALID,-0.0169808,VALID,20.2561,VALID,173,VALID,0,
2008-08-20, 00:22:00,VALID,917.962,VALID,0,VALID,95.9413,VALID,0,VALID,20.2364,VALID,173,VALID,0,
2008-08-20, 00:23:00,VALID,917.967,VALID,0,VALID,96.0596,VALID,0,VALID,20.2099,VALID,186,VALID,0,
2008-08-20, 00:24:00,VALID,917.966,VALID,0,VALID,96.1028,VALID,0,VALID,20.191,VALID,189,VALID,0,
2008-08-20, 00:25:00,VALID,917.97,VALID,0,VALID,96.2528,VALID,0.0169808,VALID,20.1585,VALID,189,VALID,0,
2008-08-20, 00:26:00,VALID,917.966,VALID,0,VALID,96.4563,VALID,0,VALID,20.1453,VALID,189,VALID,0,
2008-08-20, 00:27:00,VALID,917.979,VALID,0,VALID,96.5936,VALID,0.0339617,VALID,20.1488,VALID,189,VALID,0,
2008-08-20, 00:28:00,VALID,917.965,VALID,0,VALID,96.6241,VALID,0.0169808,VALID,20.1585,VALID,189,VALID,0,
2008-08-20, 00:29:00,VALID,917.966,VALID,0,VALID,96.6852,VALID,0.0339617,VALID,20.1483,VALID,193,VALID,0,
2008-08-20, 00:30:00,VALID,917.965,VALID,0,VALID,96.7284,VALID,0,VALID,20.1515,VALID,194,VALID,0,
2008-08-20, 00:31:00,VALID,917.972,VALID,0,VALID,96.7577,VALID,0.0339617,VALID,20.1475,VALID,194,VALID,0,
2008-08-20, 00:32:00,VALID,917.965,VALID,0,VALID,96.7538,VALID,0.0509425,VALID,20.154,VALID,194,VALID,0,
2008-08-20, 00:33:00,VALID,917.954,VALID,0,VALID,96.6674,VALID,0.0509425,VALID,20.1448,VALID,194,VALID,0,
2008-08-20, 00:34:00,VALID,917.948,VALID,0,VALID,96.5237,VALID,0.0339617,VALID,20.1188,VALID,194,VALID,0,
2008-08-20, 00:35:00,VALID,917.94,VALID,0,VALID,96.6496,VALID,0.0339617,VALID,20.0772,VALID,194,VALID,0,
2008-08-20, 00:36:00,VALID,917.925,VALID,0,VALID,96.7805,VALID,-0.0679233,VALID,20.042,VALID,194,VALID,0,
2008-08-20, 00:37:00,VALID,917.907,VALID,0,VALID,96.7831,VALID,0,VALID,19.9768,VALID,186,VALID,0,
2008-08-20, 00:38:00,VALID,917.904,VALID,0,VALID,97.0921,VALID,-0.0339617,VALID,19.9025,VALID,94,VALID,0,
2008-08-20, 00:39:00,VALID,917.886,VALID,0,VALID,97.658,VALID,-0.0169808,VALID,19.8733,VALID,84,VALID,0,
2008-08-20, 00:40:00,VALID,917.89,VALID,0,VALID,97.8195,VALID,-0.0169808,VALID,19.854,VALID,86,VALID,0,
2008-08-20, 00:41:00,VALID,917.875,VALID,0,VALID,97.9682,VALID,-0.0509425,VALID,19.8573,VALID,86,VALID,0,
2008-08-20, 00:42:00,VALID,917.89,VALID,0,VALID,97.9453,VALID,0,VALID,19.8503,VALID,86,VALID,0,
2008-08-20, 00:43:00,VALID,917.9,VALID,0,VALID,97.9225,VALID,-0.0339617,VALID,19.8276,VALID,86,VALID,0,
2008-08-20, 00:44:00,VALID,917.893,VALID,0,VALID,97.9517,VALID,0,VALID,19.8081,VALID,86,VALID,0,
2008-08-20, 00:45:00,VALID,917.874,VALID,0,VALID,97.9848,VALID,0,VALID,19.7887,VALID,86,VALID,0,
2008-08-20, 00:46:00,VALID,917.863,VALID,0,VALID,98.0433,VALID,0,VALID,19.7724,VALID,86,VALID,0,
2008-08-20, 00:47:00,VALID,917.847,VALID,0,VALID,98.0941,VALID,0.0339617,VALID,19.7525,VALID,89,VALID,0,
2008-08-20, 00:48:00,VALID,917.821,VALID,0,VALID,98.2213,VALID,-0.0339617,VALID,19.74,VALID,101,VALID,0,
2008-08-20, 00:49:00,VALID,917.789,VALID,0,VALID,98.4362,VALID,0,VALID,19.7527,VALID,101,VALID,0,
2008-08-20, 00:50:00,VALID,917.767,VALID,0,VALID,98.4286,VALID,0,VALID,19.7527,VALID,101,VALID,0,
2008-08-20, 00:51:00,VALID,917.751,VALID,0,VALID,98.4273,VALID,0.0169808,VALID,19.7497,VALID,101,VALID,0,
2008-08-20, 00:52:00,VALID,917.726,VALID,0,VALID,98.4947,VALID,0.0169808,VALID,19.7497,VALID,101,VALID,0,
2008-08-20, 00:53:00,VALID,917.707,VALID,0,VALID,98.5913,VALID,0,VALID,19.7627,VALID,101,VALID,0,
2008-08-20, 00:54:00,VALID,917.706,VALID,0,VALID,98.6053,VALID,0,VALID,19.7724,VALID,101,VALID,0,
2008-08-20, 00:55:00,VALID,917.695,VALID,0,VALID,98.5506,VALID,0,VALID,19.7692,VALID,111,VALID,0,
2008-08-20, 00:56:00,VALID,917.671,VALID,0,VALID,98.6155,VALID,0,VALID,19.7692,VALID,176,VALID,0,
2008-08-20, 00:57:00,VALID,917.645,VALID,0,VALID,98.6435,VALID,0,VALID,19.7622,VALID,200,VALID,0,
2008-08-20, 00:58:00,VALID,917.609,VALID,0,VALID,98.6676,VALID,0.0169808,VALID,19.7757,VALID,212,VALID,0,
2008-08-20, 00:59:00,VALID,917.578,VALID,0,VALID,98.6498,VALID,0,VALID,19.7724,VALID,215,VALID,0,
2008-08-20, 01:00:00,VALID,917.576,VALID,0,VALID,98.5214,VALID,-0.0169808,VALID,19.7497,VALID,204,VALID,0,
2008-08-20, 01:01:00,VALID,917.532,VALID,0,VALID,98.5188,VALID,-0.0169808,VALID,19.7238,VALID,196,VALID,0,
2008-08-20, 01:02:00,VALID,917.5,VALID,0,VALID,98.5633,VALID,0,VALID,19.6846,VALID,196,VALID,0,
2008-08-20, 01:03:00,VALID,917.484,VALID,0,VALID,98.7096,VALID,0,VALID,19.6651,VALID,196,VALID,0,
2008-08-20, 01:04:00,VALID,917.436,VALID,0,VALID,98.7452,VALID,0,VALID,19.6589,VALID,196,VALID,0,
2008-08-20, 01:05:00,VALID,917.41,VALID,0,VALID,98.9792,VALID,0.0169808,VALID,19.6589,VALID,196,VALID,0,
2008-08-20, 01:06:00,VALID,917.391,VALID,0,VALID,99.0033,VALID,0,VALID,19.6586,VALID,196,VALID,0,
2008-08-20, 01:07:00,VALID,917.369,VALID,0,VALID,98.8673,VALID,0,VALID,19.6524,VALID,196,VALID,0,
2008-08-20, 01:08:00,VALID,917.352,VALID,0,VALID,99.0427,VALID,0,VALID,19.6362,VALID,195,VALID,0,
2008-08-20, 01:09:00,VALID,917.322,VALID,0,VALID,99.1127,VALID,-0.0169808,VALID,19.6554,VALID,195,VALID,0,
2008-08-20, 01:10:00,VALID,917.316,VALID,0,VALID,98.9944,VALID,0.0169808,VALID,19.6459,VALID,195,VALID,0,
2008-08-20, 01:11:00,VALID,917.294,VALID,0,VALID,99.2233,VALID,0,VALID,19.6427,VALID,188,VALID,0,
2008-08-20, 01:12:00,VALID,917.292,VALID,0,VALID,99.2475,VALID,-0.0169808,VALID,19.6554,VALID,188,VALID,0,
2008-08-20, 01:13:00,VALID,917.286,VALID,0,VALID,99.4318,VALID,-0.0339617,VALID,19.6911,VALID,188,VALID,0,
2008-08-20, 01:14:00,VALID,917.294,VALID,0,VALID,99.3848,VALID,0,VALID,19.7367,VALID,188,VALID,0,
2008-08-20, 01:15:00,VALID,917.303,VALID,0,VALID,99.1457,VALID,-0.0679233,VALID,19.7595,VALID,188,VALID,0,
2008-08-20, 01:16:00,VALID,917.31,VALID,0,VALID,98.585,VALID,0,VALID,19.714,VALID,188,VALID,0,
2008-08-20, 01:17:00,VALID,917.32,VALID,0,VALID,98.4069,VALID,0.0169808,VALID,19.6289,VALID,188,VALID,0,
2008-08-20, 01:18:00,VALID,917.329,VALID,0,VALID,98.4692,VALID,0,VALID,19.574,VALID,188,VALID,0,
2008-08-20, 01:19:00,VALID,917.335,VALID,0,VALID,98.3726,VALID,-0.0169808,VALID,19.4867,VALID,188,VALID,0,
2008-08-20, 01:20:00,VALID,917.329,VALID,0,VALID,98.5061,VALID,-0.0169808,VALID,19.3991,VALID,188,VALID,0,
2008-08-20, 01:21:00,VALID,917.335,VALID,0,VALID,99.0478,VALID,0,VALID,19.4255,VALID,188,VALID,0,
2008-08-20, 01:22:00,VALID,917.332,VALID,0,VALID,99.1508,VALID,0.0169808,VALID,19.3989,VALID,111,VALID,0,
2008-08-20, 01:23:00,VALID,917.323,VALID,0,VALID,99.3327,VALID,0,VALID,19.3993,VALID,43,VALID,0,
2008-08-20, 01:24:00,VALID,917.313,VALID,0,VALID,99.47,VALID,0,VALID,19.3796,VALID,42,VALID,0,
2008-08-20, 01:25:00,VALID,917.294,VALID,0,VALID,99.6811,VALID,0,VALID,19.3701,VALID,42,VALID,0,
2008-08-20, 01:26:00,VALID,917.291,VALID,0,VALID,99.765,VALID,0,VALID,19.3667,VALID,42,VALID,0,
2008-08-20, 01:27:00,VALID,917.274,VALID,0,VALID,99.955,VALID,-0.0169808,VALID,19.3731,VALID,33,VALID,0,
2008-08-20, 01:28:00,VALID,917.277,VALID,0,VALID,100,VALID,0,VALID,19.3956,VALID,314,VALID,0,
2008-08-20, 01:29:00,VALID,917.269,VALID,0,VALID,100,VALID,0,VALID,19.4123,INVALID,360,VALID,0,
2008-08-20, 01:30:00,VALID,917.266,VALID,0,VALID,100,VALID,-0.0339617,VALID,19.4023,INVALID,360,VALID,0,
2008-08-20, 01:31:00,VALID,917.253,VALID,0,VALID,100,VALID,0,VALID,19.3766,VALID,314,VALID,0,
2008-08-20, 01:32:00,VALID,917.24,VALID,0,VALID,100,VALID,-0.0509425,VALID,19.3669,VALID,314,VALID,0,
2008-08-20, 01:33:00,VALID,917.229,VALID,0,VALID,99.9789,VALID,0,VALID,19.3701,VALID,314,VALID,0,
2008-08-20, 01:34:00,VALID,917.226,VALID,0,VALID,99.8655,VALID,-0.0169808,VALID,19.3372,INVALID,360,VALID,0,
2008-08-20, 01:35:00,VALID,917.216,VALID,0,VALID,99.8706,VALID,-0.0169808,VALID,19.331,INVALID,360,VALID,0,
2008-08-20, 01:36:00,VALID,917.202,VALID,0,VALID,99.704,VALID,0.0509425,VALID,19.2781,VALID,314,VALID,0,
2008-08-20, 01:37:00,VALID,917.196,VALID,0,VALID,99.6646,VALID,0.0169808,VALID,19.2364,VALID,314,VALID,0,
2008-08-20, 01:38:00,VALID,917.194,VALID,0,VALID,99.7052,VALID,0.0509425,VALID,19.1903,INVALID,360,VALID,0,
2008-08-20, 01:39:00,VALID,917.191,VALID,0,VALID,99.7078,VALID,0,VALID,19.1651,VALID,314,VALID,0,
2008-08-20, 01:40:00,VALID,917.187,VALID,0,VALID,99.7167,VALID,0.0169808,VALID,19.1289,INVALID,360,VALID,0,
2008-08-20, 01:41:00,VALID,917.178,VALID,0,VALID,99.7281,VALID,0.0509425,VALID,19.1132,INVALID,360,VALID,0,
2008-08-20, 01:42:00,VALID,917.176,VALID,0,VALID,99.8845,VALID,0.0509425,VALID,19.0962,INVALID,360,VALID,0,
2008-08-20, 01:43:00,VALID,917.182,VALID,0,VALID,99.8706,VALID,0.0679233,VALID,19.0897,INVALID,360,VALID,0,
2008-08-20, 01:44:00,VALID,917.166,VALID,0,VALID,99.8222,VALID,0.0679233,VALID,19.077,INVALID,360,VALID,0,
2008-08-20, 01:45:00,VALID,917.171,VALID,0,VALID,99.7548,VALID,0,VALID,19.0448,INVALID,360,VALID,0,
2008-08-20, 01:46:00,VALID,917.172,VALID,0,VALID,99.4789,VALID,-0.0339617,VALID,18.9584,INVALID,360,VALID,0,
2008-08-20, 01:47:00,VALID,917.15,VALID,0,VALID,99.8395,VALID,-0.0679233,VALID,18.8966,INVALID,360,VALID,0,
2008-08-20, 01:48:00,VALID,917.153,VALID,0,VALID,100,VALID,-0.0169808,VALID,18.9093,INVALID,360,VALID,0,
2008-08-20, 01:49:00,VALID,917.153,VALID,0,VALID,100,VALID,-0.0339617,VALID,18.9158,INVALID,360,VALID,0,
2008-08-20, 01:50:00,VALID,917.157,VALID,0,VALID,99.9901,VALID,-0.0679233,VALID,18.903,INVALID,360,VALID,0,
2008-08-20, 01:51:00,VALID,917.163,VALID,0,VALID,99.8922,VALID,-0.0339617,VALID,18.8023,INVALID,360,VALID,0,
2008-08-20, 01:52:00,VALID,917.167,VALID,0,VALID,99.9914,VALID,-0.0339617,VALID,18.7636,INVALID,360,VALID,0,
2008-08-20, 01:53:00,VALID,917.167,VALID,0,VALID,100,VALID,-0.0679233,VALID,18.7798,VALID,45,VALID,0,
2008-08-20, 01:54:00,VALID,917.151,VALID,0,VALID,100,VALID,-0.0169808,VALID,18.8085,VALID,58,VALID,0,
2008-08-20, 01:55:00,VALID,917.136,VALID,0,VALID,100,VALID,-0.0339617,VALID,18.9091,VALID,78,VALID,0,
2008-08-20, 01:56:00,VALID,917.119,VALID,0,VALID,100,VALID,-0.0169808,VALID,19.0223,VALID,93,VALID,0,
2008-08-20, 01:57:00,VALID,917.1,VALID,0,VALID,100,VALID,-0.0169808,VALID,19.1037,VALID,93,VALID,0,
2008-08-20, 01:58:00,VALID,917.078,VALID,0,VALID,100,VALID,-0.0169808,VALID,19.1655,VALID,93,VALID,0,
2008-08-20, 01:59:00,VALID,917.054,VALID,0,VALID,100,VALID,-0.0339617,VALID,19.2045,VALID,93,VALID,0,
2008-08-20, 02:00:00,VALID,917.039,VALID,0,VALID,99.7759,VALID,-0.0339617,VALID,19.2045,VALID,128,VALID,0,
2008-08-20, 02:01:00,VALID,917.021,VALID,0,VALID,99.3238,VALID,-0.0169808,VALID,19.1236,VALID,155,VALID,0,
2008-08-20, 02:02:00,VALID,917.016,VALID,0,VALID,99.7014,VALID,0,VALID,19.068,VALID,155,VALID,0,
2008-08-20, 02:03:00,VALID,917.005,VALID,0,VALID,99.9906,VALID,-0.0509425,VALID,19.062,VALID,163,VALID,0.12965,
2008-08-20, 02:04:00,VALID,916.987,VALID,0,VALID,100,VALID,-0.0169808,VALID,19.0455,VALID,163,VALID,0,
2008-08-20, 02:05:00,VALID,916.995,VALID,0,VALID,100,VALID,-0.0169808,VALID,19.0128,VALID,163,VALID,0,
2008-08-20, 02:06:00,VALID,916.984,VALID,0,VALID,100,VALID,0,VALID,19.0031,VALID,163,VALID,0,
2008-08-20, 02:07:00,VALID,916.991,VALID,0,VALID,100,VALID,-0.0169808,VALID,18.9839,VALID,176,VALID,0,
2008-08-20, 02:08:00,VALID,916.97,VALID,0,VALID,100,VALID,-0.0169808,VALID,18.928,VALID,171,VALID,0,
2008-08-20, 02:09:00,VALID,916.968,VALID,0,VALID,100,VALID,-0.0169808,VALID,18.9123,VALID,167,VALID,0,
2008-08-20, 02:10:00,VALID,916.964,VALID,0,VALID,100,VALID,-0.0169808,VALID,18.9352,VALID,158,VALID,0,
2008-08-20, 02:11:00,VALID,916.958,VALID,0,VALID,100,VALID,-0.0509425,VALID,18.9549,VALID,155,VALID,0,
2008-08-20, 02:12:00,VALID,916.948,VALID,0,VALID,100,VALID,-0.0339617,VALID,18.9776,VALID,151,VALID,0,
2008-08-20, 02:13:00,VALID,916.966,VALID,0,VALID,100,VALID,-0.0339617,VALID,18.9547,VALID,145,VALID,0.0777344,
2008-08-20, 02:14:00,VALID,916.964,VALID,0,VALID,100,VALID,-0.0339617,VALID,18.9352,VALID,138,VALID,0,
2008-08-20, 02:15:00,VALID,916.965,VALID,0,VALID,100,VALID,-0.0339617,VALID,18.9058,VALID,137,VALID,0.0568677,
2008-08-20, 02:16:00,VALID,916.964,VALID,0,VALID,100,VALID,-0.0339617,VALID,18.9125,VALID,137,VALID,0.324491,
2008-08-20, 02:17:00,VALID,916.99,VALID,0,VALID,100,VALID,-0.0679233,VALID,18.9283,VALID,130,VALID,0.155134,
2008-08-20, 02:18:00,VALID,916.983,VALID,0,VALID,100,VALID,-0.0679233,VALID,18.9193,VALID,134,VALID,0.142933,
2008-08-20, 02:19:00,VALID,916.98,VALID,0,VALID,100,VALID,-0.0169808,VALID,18.906,VALID,129,VALID,0.00866168,
2008-08-20, 02:20:00,VALID,916.975,VALID,0,VALID,100,VALID,-0.0679233,VALID,18.8996,VALID,130,VALID,0.00576637,
2008-08-20, 02:21:00,VALID,916.953,VALID,0,VALID,100,VALID,0,VALID,18.8988,VALID,129,VALID,0,
2008-08-20, 02:22:00,VALID,916.937,VALID,0,VALID,100,VALID,0.0169808,VALID,18.9053,VALID,128,VALID,0.0928199,
2008-08-20, 02:23:00,VALID,916.93,VALID,0,VALID,100,VALID,-0.0169808,VALID,18.8926,VALID,122,VALID,0.00520833,
2008-08-20, 02:24:00,VALID,916.901,VALID,0,VALID,100,VALID,-0.0169808,VALID,18.8694,VALID,125,VALID,0,
2008-08-20, 02:25:00,VALID,916.889,VALID,0,VALID,100,VALID,0,VALID,18.8861,VALID,124,VALID,0,
2008-08-20, 02:26:00,VALID,916.87,VALID,0,VALID,100,VALID,-0.0339617,VALID,18.8704,VALID,131,VALID,0,
2008-08-20, 02:27:00,VALID,916.878,VALID,0,VALID,100,VALID,-0.0509425,VALID,18.8636,VALID,131,VALID,0,
2008-08-20, 02:28:00,VALID,916.864,VALID,0,VALID,100,VALID,-0.0169808,VALID,18.8602,VALID,132,VALID,0.102273,
2008-08-20, 02:29:00,VALID,916.868,VALID,0,VALID,100,VALID,-0.0339617,VALID,18.8736,VALID,132,VALID,0,
2008-08-20, 02:30:00,VALID,916.861,VALID,0,VALID,100,VALID,-0.0339617,VALID,18.8734,VALID,135,VALID,0,
2008-08-20, 02:31:00,VALID,916.854,VALID,0,VALID,100,VALID,-0.0339617,VALID,18.8439,VALID,144,VALID,0,
2008-08-20, 02:32:00,VALID,916.862,VALID,0,VALID,100,VALID,0,VALID,18.8444,VALID,146,VALID,0.178163,
2008-08-20, 02:33:00,VALID,916.857,VALID,0,VALID,100,VALID,-0.0169808,VALID,18.8307,VALID,141,VALID,0.0832031,
2008-08-20, 02:34:00,VALID,916.856,VALID,0,VALID,100,VALID,-0.0339617,VALID,18.8375,VALID,145,VALID,1.08918,
2008-08-20, 02:35:00,VALID,916.853,VALID,0,VALID,100,VALID,0.0169808,VALID,18.8402,VALID,147,VALID,1.01094,
2008-08-20, 02:36:00,VALID,916.846,VALID,0,VALID,100,VALID,0,VALID,18.8472,VALID,146,VALID,0.606424,
2008-08-20, 02:37:00,VALID,916.838,VALID,0,VALID,100,VALID,0,VALID,18.8372,VALID,146,VALID,0.60774,
2008-08-20, 02:38:00,VALID,916.835,VALID,0,VALID,100,VALID,-0.0169808,VALID,18.8312,VALID,146,VALID,0.370028,
2008-08-20, 02:39:00,VALID,916.815,VALID,0,VALID,100,VALID,0,VALID,18.815,VALID,140,VALID,0.780692,
2008-08-20, 02:40:00,VALID,916.802,VALID,0,VALID,100,VALID,-0.0339617,VALID,18.7955,VALID,134,VALID,0.865007,
2008-08-20, 02:41:00,VALID,916.782,VALID,0,VALID,100,VALID,0.0169808,VALID,18.802,VALID,134,VALID,0.870808,
2008-08-20, 02:42:00,VALID,916.757,VALID,0,VALID,100,VALID,-0.0339617,VALID,18.805,VALID,133,VALID,1.07527,
2008-08-20, 02:43:00,VALID,916.744,VALID,0,VALID,100,VALID,0,VALID,18.8245,VALID,135,VALID,1.14698,
2008-08-20, 02:44:00,VALID,916.728,VALID,0,VALID,100,VALID,0,VALID,18.8305,VALID,133,VALID,1.13377,
2008-08-20, 02:45:00,VALID,916.705,VALID,0,VALID,100,VALID,0,VALID,18.8472,VALID,137,VALID,1.24964,
2008-08-20, 02:46:00,VALID,916.7,VALID,0,VALID,100,VALID,-0.0169808,VALID,18.8861,VALID,136,VALID,1.41446,
2008-08-20, 02:47:00,VALID,916.698,VALID,0,VALID,100,VALID,-0.0339617,VALID,18.9158,VALID,131,VALID,1.11137,
2008-08-20, 02:48:00,VALID,916.691,VALID,0,VALID,100,VALID,0,VALID,18.9051,VALID,125,VALID,1.09738,
2008-08-20, 02:49:00,VALID,916.669,VALID,0,VALID,100,VALID,0,VALID,18.8924,VALID,116,VALID,1.02129,
2008-08-20, 02:50:00,VALID,916.673,VALID,0,VALID,100,VALID,0,VALID,18.8766,VALID,122,VALID,1.18113,
2008-08-20, 02:51:00,VALID,916.661,VALID,0,VALID,100,VALID,-0.0849042,VALID,18.8611,VALID,125,VALID,1.22882,
2008-08-20, 02:52:00,VALID,916.652,VALID,0,VALID,100,VALID,-0.101885,VALID,18.8222,VALID,118,VALID,1.09702,
2008-08-20, 02:53:00,VALID,916.66,VALID,0,VALID,100,VALID,-0.101885,VALID,18.7937,VALID,128,VALID,1.1503,
2008-08-20, 02:54:00,VALID,916.652,VALID,0,VALID,100,VALID,-0.101885,VALID,18.761,VALID,127,VALID,1.25539,
2008-08-20, 02:55:00,VALID,916.661,VALID,0,VALID,100,VALID,-0.101885,VALID,18.7152,VALID,132,VALID,1.51544,
2008-08-20, 02:56:00,VALID,916.678,VALID,0,VALID,100,VALID,-0.118866,VALID,18.6795,VALID,133,VALID,1.51999,
2008-08-20, 02:57:00,VALID,916.671,VALID,0,VALID,100,VALID,-0.135847,VALID,18.6535,VALID,137,VALID,1.50037,
2008-08-20, 02:58:00,VALID,916.675,VALID,0,VALID,100,VALID,-0.118866,VALID,18.6383,VALID,142,VALID,1.11501,
2008-08-20, 02:59:00,VALID,916.664,VALID,0,VALID,100,VALID,-0.101885,VALID,18.6153,VALID,147,VALID,0.773996,
2008-08-20, 03:00:00,VALID,916.669,VALID,0,VALID,100,VALID,-0.118866,VALID,18.5959,VALID,148,VALID,0.284702,
2008-08-20, 03:01:00,VALID,916.66,VALID,0,VALID,100,VALID,-0.118866,VALID,18.5667,VALID,155,VALID,1.0261,
2008-08-20, 03:02:00,VALID,916.652,VALID,0,VALID,100,VALID,-0.101885,VALID,18.5403,VALID,158,VALID,0.967842,
2008-08-20, 03:03:00,VALID,916.658,VALID,0,VALID,100,VALID,-0.101885,VALID,18.505,VALID,163,VALID,0.75142,
2008-08-20, 03:04:00,VALID,916.643,VALID,0,VALID,100,VALID,-0.118866,VALID,18.4721,VALID,150,VALID,0.993924,
2008-08-20, 03:05:00,VALID,916.621,VALID,0,VALID,100,VALID,-0.135847,VALID,18.4497,VALID,162,VALID,0.522049,
2008-08-20, 03:06:00,VALID,916.605,VALID,0,VALID,100,VALID,-0.0169808,VALID,18.4223,VALID,158,VALID,0.189317,
2008-08-20, 03:07:00,VALID,916.595,VALID,0,VALID,100,VALID,-0.0169808,VALID,18.4151,VALID,151,VALID,0.763765,
2008-08-20, 03:08:00,VALID,916.57,VALID,0,VALID,100,VALID,-0.0169808,VALID,18.383,VALID,144,VALID,0.807546,
2008-08-20, 03:09:00,VALID,916.55,VALID,0,VALID,100,VALID,-0.0169808,VALID,18.3637,VALID,142,VALID,0.503997,
2008-08-20, 03:10:00,VALID,916.52,VALID,0,VALID,100,VALID,0,VALID,18.3443,VALID,148,VALID,0,
2008-08-20, 03:11:00,VALID,916.519,VALID,0,VALID,100,VALID,0,VALID,18.351,VALID,155,VALID,0.299237,
2008-08-20, 03:12:00,VALID,916.49,VALID,0,VALID,100,VALID,-0.0339617,VALID,18.364,VALID,155,VALID,1.02307,
2008-08-20, 03:13:00,VALID,916.482,VALID,0,VALID,100,VALID,0,VALID,18.3642,VALID,160,VALID,1.03125,
2008-08-20, 03:14:00,VALID,916.469,VALID,0,VALID,100,VALID,-0.0169808,VALID,18.3867,VALID,163,VALID,0.961293,
2008-08-20, 03:15:00,VALID,916.469,VALID,0,VALID,100,VALID,-0.0339617,VALID,18.4024,VALID,162,VALID,0.881541,
2008-08-20, 03:16:00,VALID,916.484,VALID,0,VALID,100,VALID,-0.0169808,VALID,18.4286,VALID,161,VALID,0.605208,
2008-08-20, 03:17:00,VALID,916.523,VALID,0,VALID,100,VALID,-0.0339617,VALID,18.4321,VALID,166,VALID,0.563834,
2008-08-20, 03:18:00,VALID,916.544,VALID,0,VALID,100,VALID,-0.0339617,VALID,18.4221,VALID,169,VALID,0.619284,
2008-08-20, 03:19:00,VALID,916.565,VALID,0,VALID,100,VALID,-0.0169808,VALID,18.426,VALID,161,VALID,0.189732,
2008-08-20, 03:20:00,VALID,916.57,VALID,0,VALID,100,VALID,-0.0169808,VALID,18.4124,VALID,161,VALID,0,
2008-08-20, 03:21:00,VALID,916.599,VALID,0,VALID,100,VALID,-0.0339617,VALID,18.4291,VALID,161,VALID,0.0381324,
2008-08-20, 03:22:00,VALID,916.597,VALID,0,VALID,100,VALID,0,VALID,18.3929,VALID,161,VALID,0.189648,
2008-08-20, 03:23:00,VALID,916.591,VALID,0,VALID,100,VALID,-0.0169808,VALID,18.3672,VALID,166,VALID,0,
2008-08-20, 03:24:00,VALID,916.581,VALID,0,VALID,100,VALID,-0.0169808,VALID,18.3508,VALID,181,VALID,0.0412427,
2008-08-20, 03:25:00,VALID,916.568,VALID,0,VALID,100,VALID,0.0169808,VALID,18.354,VALID,179,VALID,0.0806686,
2008-08-20, 03:26:00,VALID,916.541,VALID,0,VALID,100,VALID,-0.0339617,VALID,18.3482,VALID,164,VALID,0,
2008-08-20, 03:27:00,VALID,916.529,VALID,0,VALID,100,VALID,-0.0169808,VALID,18.348,VALID,137,VALID,0,
2008-08-20, 03:28:00,VALID,916.517,VALID,0,VALID,100,VALID,-0.0169808,VALID,18.2757,VALID,79,VALID,0,
2008-08-20, 03:29:00,VALID,916.511,VALID,0,VALID,100,VALID,-0.0339617,VALID,18.2243,VALID,73,VALID,0,
2008-08-20, 03:30:00,VALID,916.506,VALID,0,VALID,100,VALID,-0.0169808,VALID,18.2053,VALID,74,VALID,0,
2008-08-20, 03:31:00,VALID,916.49,VALID,0,VALID,100,VALID,-0.0509425,VALID,18.215,VALID,92,VALID,0.697545,
2008-08-20, 03:32:00,VALID,916.479,VALID,0,VALID,100,VALID,0,VALID,18.2535,VALID,97,VALID,0.84266,
2008-08-20, 03:33:00,VALID,916.484,VALID,0,VALID,100,VALID,-0.0169808,VALID,18.2634,VALID,102,VALID,0.942827,
2008-08-20, 03:34:00,VALID,916.476,VALID,0,VALID,100,VALID,-0.0169808,VALID,18.2729,VALID,113,VALID,1.11128,
2008-08-20, 03:35:00,VALID,916.468,VALID,0,VALID,100,VALID,-0.0339617,VALID,18.3023,VALID,117,VALID,1.123,
2008-08-20, 03:36:00,VALID,916.476,VALID,0,VALID,100,VALID,-0.0339617,VALID,18.3216,VALID,129,VALID,1.12928,
2008-08-20, 03:37:00,VALID,916.472,VALID,0,VALID,100,VALID,0,VALID,18.3408,VALID,141,VALID,1.22246,
2008-08-20, 03:38:00,VALID,916.474,VALID,0,VALID,100,VALID,-0.0339617,VALID,18.3959,VALID,138,VALID,1.39234,
2008-08-20, 03:39:00,VALID,916.448,VALID,0,VALID,100,VALID,0,VALID,18.4381,VALID,149,VALID,0.826126,
2008-08-20, 03:40:00,VALID,916.444,VALID,0,VALID,100,VALID,-0.0169808,VALID,18.4582,VALID,155,VALID,0.624414,
2008-08-20, 03:41:00,VALID,916.436,VALID,0,VALID,100,VALID,-0.0509425,VALID,18.4779,VALID,163,VALID,1.05069,
2008-08-20, 03:42:00,VALID,916.429,VALID,0,VALID,100,VALID,-0.0339617,VALID,18.4842,VALID,156,VALID,0.658918,
2008-08-20, 03:43:00,VALID,916.419,VALID,0,VALID,100,VALID,-0.0679233,VALID,18.4976,VALID,160,VALID,0.775436,
2008-08-20, 03:44:00,VALID,916.412,VALID,0,VALID,100,VALID,-0.101885,VALID,18.5039,VALID,165,VALID,0.928906,